Tabellarische Ansicht des 23.6.2012


Die einzelnen Werte des Tages

Uhrzeit Temperatur Luftdruck Luftfeuchte Wind Hi-Wind Taupunkt THW Index Wind Chill Heat Index Solar- strahlung Regen

00:00

12.2 C

1016.9 hpa

89 %

8.0 km/h aus 104

11.3 km/h aus S

10.4 C

11.6 C

11.6 C

12.2 C

0 W/m

0.00 mm

00:05

12.0 C

1016.9 hpa

89 %

6.4 km/h aus 99

9.7 km/h aus S

10.2 C

11.7 C

11.7 C

12.1 C

0 W/m

0.25 mm

00:10

11.8 C

1016.9 hpa

89 %

6.4 km/h aus 101

8.0 km/h aus S

10.1 C

11.6 C

11.5 C

11.9 C

0 W/m

0.00 mm

00:15

11.6 C

1016.9 hpa

90 %

6.4 km/h aus 89

9.7 km/h aus S

10.0 C

11.3 C

11.2 C

11.7 C

0 W/m

0.00 mm

00:20

11.4 C

1016.9 hpa

90 %

6.4 km/h aus 98

9.7 km/h aus S

9.9 C

11.1 C

11.1 C

11.5 C

0 W/m

0.00 mm

00:25

11.4 C

1016.9 hpa

90 %

6.4 km/h aus 108

9.7 km/h aus S

9.8 C

11.1 C

11.0 C

11.4 C

0 W/m

0.00 mm

00:30

11.3 C

1016.9 hpa

91 %

6.4 km/h aus 111

9.7 km/h aus S

9.9 C

11.0 C

10.9 C

11.4 C

0 W/m

0.00 mm

00:35

11.3 C

1016.9 hpa

91 %

6.4 km/h aus 110

9.7 km/h aus S

9.9 C

10.9 C

10.8 C

11.4 C

0 W/m

0.00 mm

00:40

11.3 C

1016.9 hpa

91 %

6.4 km/h aus 109

9.7 km/h aus S

9.9 C

11.0 C

10.9 C

11.4 C

0 W/m

0.00 mm

00:45

11.3 C

1017.0 hpa

91 %

6.4 km/h aus 112

11.3 km/h aus S

9.9 C

10.9 C

10.8 C

11.4 C

0 W/m

0.00 mm

00:50

11.2 C

1017.0 hpa

91 %

6.4 km/h aus 108

8.0 km/h aus S

9.8 C

10.8 C

10.7 C

11.3 C

0 W/m

0.00 mm

00:55

11.1 C

1017.0 hpa

91 %

6.4 km/h aus 109

9.7 km/h aus S

9.7 C

10.8 C

10.7 C

11.2 C

0 W/m

0.00 mm

01:00

11.1 C

1017.0 hpa

91 %

8.0 km/h aus 98

11.3 km/h aus S

9.7 C

10.4 C

10.3 C

11.2 C

0 W/m

0.00 mm

01:05

11.2 C

1017.0 hpa

92 %

8.0 km/h aus 101

11.3 km/h aus S

10.0 C

10.6 C

10.4 C

11.3 C

0 W/m

0.00 mm

01:10

11.2 C

1017.0 hpa

92 %

8.0 km/h aus 108

11.3 km/h aus SSE

10.0 C

10.6 C

10.4 C

11.3 C

0 W/m

0.00 mm

01:15

11.4 C

1017.1 hpa

92 %

8.0 km/h aus 102

17.7 km/h aus S

10.1 C

10.8 C

10.7 C

11.5 C

0 W/m

0.00 mm

01:20

11.4 C

1017.1 hpa

92 %

8.0 km/h aus 101

11.3 km/h aus SSE

10.2 C

10.8 C

10.7 C

11.6 C

0 W/m

0.00 mm

01:25

11.5 C

1017.1 hpa

92 %

9.7 km/h aus 106

16.1 km/h aus SSE

10.2 C

10.6 C

10.4 C

11.6 C

0 W/m

0.00 mm

01:30

11.6 C

1017.1 hpa

92 %

9.7 km/h aus 107

17.7 km/h aus SSE

10.4 C

10.7 C

10.6 C

11.7 C

0 W/m

0.00 mm

01:35

11.8 C

1017.1 hpa

91 %

11.3 km/h aus 102

20.9 km/h aus S

10.4 C

10.6 C

10.6 C

11.8 C

0 W/m

0.00 mm

01:40

11.9 C

1017.1 hpa

91 %

8.0 km/h aus 109

14.5 km/h aus S

10.5 C

11.3 C

11.3 C

12.0 C

0 W/m

0.00 mm

01:45

11.9 C

1017.1 hpa

91 %

9.7 km/h aus 104

12.9 km/h aus S

10.5 C

11.0 C

10.9 C

11.9 C

0 W/m

0.00 mm

01:50

11.8 C

1017.1 hpa

91 %

9.7 km/h aus 102

16.1 km/h aus SSE

10.4 C

10.8 C

10.8 C

11.8 C

0 W/m

0.00 mm

01:55

11.7 C

1017.1 hpa

91 %

9.7 km/h aus 111

16.1 km/h aus SSW

10.3 C

10.8 C

10.7 C

11.8 C

0 W/m

0.00 mm

02:00

11.6 C

1017.2 hpa

90 %

8.0 km/h aus 106

12.9 km/h aus SSE

10.0 C

10.9 C

10.9 C

11.7 C

0 W/m

0.00 mm

02:05

11.6 C

1017.2 hpa

91 %

9.7 km/h aus 108

16.1 km/h aus SSE

10.1 C

10.7 C

10.6 C

11.7 C

0 W/m

0.00 mm

02:10

11.8 C

1017.2 hpa

91 %

11.3 km/h aus 103

19.3 km/h aus S

10.4 C

10.6 C

10.6 C

11.8 C

0 W/m

0.00 mm

02:15

12.1 C

1017.2 hpa

91 %

12.9 km/h aus 105

22.5 km/h aus SSW

10.6 C

10.6 C

10.5 C

12.1 C

0 W/m

0.00 mm

02:20

12.1 C

1017.2 hpa

90 %

8.0 km/h aus 115

19.3 km/h aus SSE

10.5 C

11.6 C

11.5 C

12.2 C

0 W/m

0.00 mm

02:25

12.1 C

1017.2 hpa

90 %

11.3 km/h aus 112

20.9 km/h aus SSE

10.5 C

10.9 C

10.9 C

12.1 C

0 W/m

0.00 mm

02:30

12.1 C

1017.2 hpa

90 %

9.7 km/h aus 103

17.7 km/h aus SSE

10.5 C

11.2 C

11.1 C

12.1 C

0 W/m

0.00 mm

02:35

12.4 C

1017.2 hpa

90 %

11.3 km/h aus 110

17.7 km/h aus SSW

10.8 C

11.4 C

11.3 C

12.4 C

0 W/m

0.00 mm

02:40

12.7 C

1017.2 hpa

88 %

12.9 km/h aus 103

27.4 km/h aus S

10.7 C

11.3 C

11.3 C

12.7 C

0 W/m

0.00 mm

02:45

12.8 C

1017.1 hpa

87 %

12.9 km/h aus 108

19.3 km/h aus S

10.7 C

11.4 C

11.4 C

12.8 C

0 W/m

0.00 mm

02:50

12.8 C

1017.1 hpa

86 %

12.9 km/h aus 105

22.5 km/h aus S

10.5 C

11.4 C

11.4 C

12.8 C

0 W/m

0.00 mm

02:55

12.8 C

1017.1 hpa

86 %

11.3 km/h aus 106

19.3 km/h aus S

10.5 C

11.7 C

11.8 C

12.7 C

0 W/m

0.00 mm

03:00

12.7 C

1016.9 hpa

86 %

12.9 km/h aus 104

27.4 km/h aus SSE

10.4 C

11.3 C

11.3 C

12.7 C

0 W/m

0.00 mm

03:05

12.8 C

1016.9 hpa

86 %

14.5 km/h aus 103

19.3 km/h aus SSE

10.5 C

10.9 C

11.0 C

12.7 C

0 W/m

0.00 mm

03:10

12.8 C

1016.9 hpa

86 %

11.3 km/h aus 110

20.9 km/h aus S

10.5 C

11.7 C

11.8 C

12.7 C

0 W/m

0.00 mm

03:15

12.8 C

1016.9 hpa

85 %

14.5 km/h aus 110

22.5 km/h aus SSW

10.3 C

10.9 C

11.0 C

12.7 C

0 W/m

0.00 mm

03:20

12.7 C

1016.9 hpa

85 %

11.3 km/h aus 105

20.9 km/h aus SSE

10.3 C

11.7 C

11.7 C

12.7 C

0 W/m

0.00 mm

03:25

12.6 C

1016.9 hpa

85 %

11.3 km/h aus 110

17.7 km/h aus S

10.1 C

11.4 C

11.5 C

12.5 C

0 W/m

0.00 mm

03:30

12.4 C

1017.0 hpa

86 %

11.3 km/h aus 105

17.7 km/h aus S

10.2 C

11.3 C

11.4 C

12.4 C

0 W/m

0.00 mm

03:35

12.7 C

1017.0 hpa

85 %

14.5 km/h aus 108

32.2 km/h aus S

10.2 C

10.8 C

10.9 C

12.6 C

0 W/m

0.00 mm

03:40

12.6 C

1017.0 hpa

85 %

11.3 km/h aus 103

20.9 km/h aus S

10.2 C

11.5 C

11.6 C

12.6 C

0 W/m

0.00 mm

03:45

12.6 C

1017.0 hpa

85 %

12.9 km/h aus 107

20.9 km/h aus SSW

10.2 C

11.1 C

11.2 C

12.6 C

0 W/m

0.00 mm

03:50

12.6 C

1017.0 hpa

85 %

11.3 km/h aus 105

19.3 km/h aus SSE

10.1 C

11.4 C

11.5 C

12.5 C

0 W/m

0.00 mm

03:55

12.6 C

1017.0 hpa

85 %

12.9 km/h aus 113

22.5 km/h aus S

10.1 C

11.1 C

11.1 C

12.5 C

0 W/m

0.00 mm

04:00

12.6 C

1016.9 hpa

84 %

12.9 km/h aus 114

20.9 km/h aus S

10.0 C

11.1 C

11.2 C

12.6 C

0 W/m

0.00 mm

04:05

12.5 C

1016.9 hpa

84 %

12.9 km/h aus 106

17.7 km/h aus S

9.9 C

11.0 C

11.1 C

12.4 C

0 W/m

0.00 mm

04:10

12.4 C

1016.9 hpa

84 %

14.5 km/h aus 112

22.5 km/h aus S

9.8 C

10.6 C

10.6 C

12.4 C

0 W/m

0.00 mm

04:15

12.5 C

1016.9 hpa

84 %

17.7 km/h aus 107

29.0 km/h aus S

9.9 C

9.9 C

10.0 C

12.4 C

0 W/m

0.00 mm

04:20

12.6 C

1016.9 hpa

84 %

12.9 km/h aus 109

20.9 km/h aus SSE

9.9 C

11.1 C

11.1 C

12.5 C

0 W/m

0.00 mm

04:25

12.5 C

1016.9 hpa

84 %

14.5 km/h aus 102

22.5 km/h aus S

9.9 C

10.6 C

10.7 C

12.4 C

0 W/m

0.00 mm

04:30

12.5 C

1017.0 hpa

84 %

12.9 km/h aus 105

19.3 km/h aus S

9.9 C

11.0 C

11.1 C

12.4 C

0 W/m

0.00 mm

04:35

12.6 C

1017.0 hpa

83 %

12.9 km/h aus 107

22.5 km/h aus S

9.7 C

11.0 C

11.1 C

12.4 C

0 W/m

0.00 mm

04:40

12.9 C

1017.0 hpa

82 %

9.7 km/h aus 107

20.9 km/h aus SSW

9.9 C

12.1 C

12.2 C

12.8 C

0 W/m

0.00 mm

04:45

13.3 C

1017.0 hpa

79 %

11.3 km/h aus 105

22.5 km/h aus S

9.7 C

12.2 C

12.4 C

13.1 C

0 W/m

0.00 mm

04:50

13.4 C

1017.0 hpa

79 %

9.7 km/h aus 110

20.9 km/h aus S

9.9 C

12.6 C

12.8 C

13.2 C

0 W/m

0.00 mm

04:55

13.4 C

1017.0 hpa

78 %

11.3 km/h aus 106

20.9 km/h aus SSW

9.7 C

12.3 C

12.6 C

13.2 C

0 W/m

0.00 mm

05:00

13.3 C

1017.2 hpa

78 %

9.7 km/h aus 109

16.1 km/h aus S

9.5 C

12.4 C

12.6 C

13.1 C

0 W/m

0.00 mm

05:05

12.8 C

1017.2 hpa

80 %

8.0 km/h aus 109

14.5 km/h aus S

9.4 C

12.1 C

12.3 C

12.6 C

0 W/m

0.00 mm

05:10

12.4 C

1017.2 hpa

82 %

8.0 km/h aus 107

14.5 km/h aus S

9.4 C

11.7 C

11.8 C

12.3 C

0 W/m

0.00 mm

05:15

12.4 C

1017.3 hpa

82 %

9.7 km/h aus 107

19.3 km/h aus S

9.4 C

11.4 C

11.6 C

12.3 C

0 W/m

0.00 mm

05:20

12.4 C

1017.3 hpa

82 %

9.7 km/h aus 106

12.9 km/h aus SSW

9.5 C

11.5 C

11.6 C

12.3 C

0 W/m

0.00 mm

05:25

12.4 C

1017.3 hpa

82 %

9.7 km/h aus 110

16.1 km/h aus SSW

9.5 C

11.5 C

11.6 C

12.3 C

0 W/m

0.00 mm

05:30

12.4 C

1017.3 hpa

82 %

11.3 km/h aus 109

24.1 km/h aus S

9.5 C

11.3 C

11.4 C

12.3 C

0 W/m

0.00 mm

05:35

12.8 C

1017.3 hpa

81 %

17.7 km/h aus 110

27.4 km/h aus S

9.7 C

10.2 C

10.4 C

12.7 C

0 W/m

0.00 mm

05:40

13.1 C

1017.3 hpa

80 %

14.5 km/h aus 110

24.1 km/h aus S

9.7 C

11.2 C

11.3 C

12.9 C

0 W/m

0.00 mm

05:45

13.3 C

1017.4 hpa

78 %

16.1 km/h aus 104

29.0 km/h aus S

9.5 C

11.0 C

11.2 C

13.1 C

0 W/m

0.00 mm

05:50

13.5 C

1017.4 hpa

77 %

16.1 km/h aus 103

30.6 km/h aus S

9.5 C

11.2 C

11.5 C

13.2 C

0 W/m

0.00 mm

05:55

13.6 C

1017.4 hpa

77 %

14.5 km/h aus 107

27.4 km/h aus SSW

9.7 C

11.8 C

12.0 C

13.4 C

0 W/m

0.00 mm

06:00

13.9 C

1017.4 hpa

75 %

14.5 km/h aus 110

22.5 km/h aus SSW

9.6 C

12.1 C

12.3 C

13.7 C

0 W/m

0.00 mm

06:05

14.2 C

1017.4 hpa

74 %

14.5 km/h aus 110

24.1 km/h aus SSW

9.7 C

12.3 C

12.7 C

13.9 C

0 W/m

0.00 mm

06:10

14.3 C

1017.4 hpa

73 %

14.5 km/h aus 109

24.1 km/h aus SSW

9.6 C

12.5 C

12.8 C

14.0 C

0 W/m

0.00 mm

06:15

14.3 C

1017.7 hpa

73 %

14.5 km/h aus 103

24.1 km/h aus SSW

9.6 C

12.5 C

12.8 C

14.0 C

0 W/m

0.00 mm

06:20

14.2 C

1017.7 hpa

74 %

12.9 km/h aus 107

22.5 km/h aus S

9.7 C

12.8 C

13.1 C

13.9 C

0 W/m

0.00 mm

06:25

14.1 C

1017.7 hpa

73 %

16.1 km/h aus 101

27.4 km/h aus SSW

9.3 C

11.8 C

12.2 C

13.8 C

0 W/m

0.00 mm

06:30

14.2 C

1017.8 hpa

73 %

17.7 km/h aus 111

33.8 km/h aus S

9.4 C

11.7 C

12.0 C

13.9 C

0 W/m

0.00 mm

06:35

14.3 C

1017.8 hpa

73 %

19.3 km/h aus 104

35.4 km/h aus SSW

9.6 C

11.5 C

11.8 C

14.0 C

0 W/m

0.00 mm

06:40

14.4 C

1017.8 hpa

73 %

16.1 km/h aus 109

29.0 km/h aus S

9.7 C

12.2 C

12.6 C

14.1 C

0 W/m

0.00 mm

06:45

14.6 C

1017.9 hpa

72 %

17.7 km/h aus 109

29.0 km/h aus SSW

9.6 C

11.9 C

12.3 C

14.2 C

0 W/m

0.00 mm

06:50

14.6 C

1017.9 hpa

73 %

14.5 km/h aus 107

25.7 km/h aus SSW

9.8 C

12.8 C

13.2 C

14.3 C

0 W/m

0.00 mm

06:55

14.7 C

1017.9 hpa

72 %

16.1 km/h aus 106

24.1 km/h aus SSW

9.7 C

12.6 C

12.9 C

14.4 C

0 W/m

0.00 mm

07:00

14.9 C

1018.0 hpa

71 %

16.1 km/h aus 107

24.1 km/h aus SSW

9.7 C

12.7 C

13.1 C

14.5 C

0 W/m

0.00 mm

07:05

15.0 C

1018.0 hpa

71 %

17.7 km/h aus 108

27.4 km/h aus S

9.8 C

12.5 C

12.9 C

14.6 C

0 W/m

0.00 mm

07:10

15.0 C

1018.0 hpa

71 %

14.5 km/h aus 109

27.4 km/h aus S

9.8 C

13.2 C

13.6 C

14.6 C

0 W/m

0.00 mm

07:15

15.0 C

1018.0 hpa

72 %

16.1 km/h aus 107

24.1 km/h aus SSE

10.0 C

12.9 C

13.2 C

14.7 C

0 W/m

0.00 mm

07:20

15.1 C

1018.0 hpa

71 %

16.1 km/h aus 110

25.7 km/h aus S

9.9 C

13.0 C

13.3 C

14.8 C

0 W/m

0.00 mm

07:25

15.3 C

1018.0 hpa

70 %

16.1 km/h aus 110

32.2 km/h aus SSW

9.8 C

13.2 C

13.6 C

14.9 C

0 W/m

0.00 mm

07:30

15.4 C

1018.0 hpa

71 %

16.1 km/h aus 103

29.0 km/h aus SSW

10.2 C

13.3 C

13.7 C

15.1 C

0 W/m

0.00 mm

07:35

15.5 C

1018.0 hpa

70 %

16.1 km/h aus 108

25.7 km/h aus SSW

10.0 C

13.5 C

13.8 C

15.2 C

0 W/m

0.00 mm

07:40

15.6 C

1018.0 hpa

70 %

17.7 km/h aus 110

30.6 km/h aus SSW

10.1 C

13.2 C

13.5 C

15.2 C

0 W/m

0.00 mm

07:45

15.7 C

1018.0 hpa

70 %

12.9 km/h aus 106

27.4 km/h aus S

10.3 C

14.6 C

14.9 C

15.4 C

0 W/m

0.00 mm

07:50

15.8 C

1018.0 hpa

69 %

16.1 km/h aus 111

32.2 km/h aus S

10.1 C

13.7 C

14.1 C

15.4 C

0 W/m

0.00 mm

07:55

15.8 C

1018.0 hpa

69 %

14.5 km/h aus 112

24.1 km/h aus SSW

10.2 C

14.3 C

14.6 C

15.5 C

0 W/m

0.00 mm

08:00

15.9 C

1018.0 hpa

68 %

14.5 km/h aus 108

27.4 km/h aus SSW

10.0 C

14.3 C

14.7 C

15.6 C

0 W/m

0.00 mm

08:05

16.1 C

1018.0 hpa

67 %

14.5 km/h aus 108

32.2 km/h aus S

9.9 C

14.5 C

14.9 C

15.7 C

0 W/m

0.00 mm

08:10

16.0 C

1018.0 hpa

66 %

20.9 km/h aus 111

32.2 km/h aus SSW

9.6 C

13.0 C

13.4 C

15.6 C

0 W/m

0.00 mm

08:15

16.1 C

1018.0 hpa

66 %

17.7 km/h aus 109

29.0 km/h aus S

9.8 C

13.7 C

14.2 C

15.7 C

0 W/m

0.00 mm

08:20

16.2 C

1018.0 hpa

66 %

19.3 km/h aus 113

32.2 km/h aus SW

9.8 C

13.4 C

13.9 C

15.7 C

0 W/m

0.00 mm

08:25

16.2 C

1018.0 hpa

66 %

16.1 km/h aus 112

29.0 km/h aus SSW

9.8 C

14.1 C

14.6 C

15.7 C

0 W/m

0.00 mm

08:30

16.3 C

1018.0 hpa

67 %

14.5 km/h aus 110

33.8 km/h aus S

10.2 C

14.8 C

15.2 C

15.9 C

0 W/m

0.00 mm

08:35

16.3 C

1018.0 hpa

65 %

19.3 km/h aus 111

32.2 km/h aus S

9.7 C

13.6 C

14.0 C

15.8 C

0 W/m

0.00 mm

08:40

16.3 C

1018.0 hpa

65 %

17.7 km/h aus 110

32.2 km/h aus SSW

9.7 C

13.9 C

14.3 C

15.8 C

0 W/m

0.00 mm

08:45

16.5 C

1018.1 hpa

66 %

17.7 km/h aus 109

30.6 km/h aus SSE

10.1 C

14.2 C

14.6 C

16.1 C

0 W/m

0.00 mm

08:50

16.7 C

1018.1 hpa

65 %

20.9 km/h aus 113

32.2 km/h aus S

10.1 C

13.9 C

14.3 C

16.3 C

0 W/m

0.00 mm

08:55

16.7 C

1018.1 hpa

63 %

19.3 km/h aus 114

30.6 km/h aus S

9.6 C

14.0 C

14.5 C

16.2 C

0 W/m

0.00 mm

09:00

16.8 C

1018.1 hpa

64 %

14.5 km/h aus 108

25.7 km/h aus SW

9.9 C

15.2 C

15.7 C

16.3 C

0 W/m

0.00 mm

09:05

16.8 C

1018.1 hpa

62 %

20.9 km/h aus 110

32.2 km/h aus SSW

9.5 C

13.8 C

14.3 C

16.2 C

0 W/m

0.00 mm

09:10

16.9 C

1018.1 hpa

62 %

17.7 km/h aus 113

30.6 km/h aus SW

9.6 C

14.6 C

15.1 C

16.4 C

0 W/m

0.00 mm

09:15

16.7 C

1018.4 hpa

62 %

20.9 km/h aus 112

32.2 km/h aus SSW

9.4 C

13.7 C

14.3 C

16.2 C

0 W/m

0.00 mm

09:20

16.7 C

1018.4 hpa

63 %

17.7 km/h aus 110

35.4 km/h aus SW

9.6 C

14.3 C

14.8 C

16.2 C

0 W/m

0.00 mm

09:25

16.7 C

1018.4 hpa

62 %

19.3 km/h aus 107

35.4 km/h aus S

9.4 C

13.9 C

14.5 C

16.2 C

0 W/m

0.00 mm

09:30

16.6 C

1018.5 hpa

63 %

17.7 km/h aus 108

29.0 km/h aus SW

9.5 C

14.2 C

14.7 C

16.1 C

0 W/m

0.00 mm

09:35

17.1 C

1018.5 hpa

63 %

17.7 km/h aus 110

29.0 km/h aus S

10.0 C

14.8 C

15.2 C

16.6 C

0 W/m

0.00 mm

09:40

17.3 C

1018.5 hpa

62 %

19.3 km/h aus 112

30.6 km/h aus SSW

10.0 C

14.7 C

15.2 C

16.8 C

0 W/m

0.00 mm

09:45

17.6 C

1018.5 hpa

64 %

25.7 km/h aus 109

38.6 km/h aus SSE

10.7 C

14.3 C

14.7 C

17.3 C

0 W/m

0.00 mm

09:50

17.3 C

1018.5 hpa

62 %

20.9 km/h aus 111

33.8 km/h aus SW

9.9 C

14.4 C

14.9 C

16.8 C

0 W/m

0.00 mm

09:55

17.3 C

1018.5 hpa

63 %

19.3 km/h aus 114

35.4 km/h aus S

10.2 C

14.7 C

15.2 C

16.8 C

0 W/m

0.00 mm

10:00

17.4 C

1018.5 hpa

64 %

20.9 km/h aus 113

43.5 km/h aus S

10.6 C

14.7 C

15.1 C

17.1 C

0 W/m

0.00 mm

10:05

17.2 C

1018.5 hpa

63 %

20.9 km/h aus 111

33.8 km/h aus S

10.1 C

14.3 C

14.8 C

16.7 C

0 W/m

0.00 mm

10:10

16.9 C

1018.5 hpa

63 %

14.5 km/h aus 107

30.6 km/h aus S

9.8 C

15.4 C

15.9 C

16.5 C

0 W/m

0.00 mm

10:15

16.9 C

1018.5 hpa

63 %

17.7 km/h aus 112

37.0 km/h aus SSW

9.8 C

14.7 C

15.1 C

16.5 C

0 W/m

0.00 mm

10:20

16.8 C

1018.5 hpa

63 %

19.3 km/h aus 108

32.2 km/h aus S

9.7 C

14.2 C

14.7 C

16.3 C

0 W/m

0.00 mm

10:25

16.8 C

1018.5 hpa

64 %

16.1 km/h aus 111

32.2 km/h aus S

10.0 C

14.9 C

15.4 C

16.4 C

0 W/m

0.00 mm

10:30

17.7 C

1018.4 hpa

62 %

16.1 km/h aus 110

30.6 km/h aus S

10.3 C

15.9 C

16.3 C

17.2 C

0 W/m

0.00 mm

10:35

17.8 C

1018.4 hpa

60 %

17.7 km/h aus 109

30.6 km/h aus SSW

9.9 C

15.6 C

16.1 C

17.3 C

0 W/m

0.00 mm

10:40

17.9 C

1018.4 hpa

60 %

16.1 km/h aus 109

29.0 km/h aus SSE

10.1 C

16.2 C

16.7 C

17.4 C

0 W/m

0.00 mm

10:45

18.0 C

1018.4 hpa

60 %

20.9 km/h aus 112

32.2 km/h aus WSW

10.1 C

15.2 C

15.7 C

17.5 C

0 W/m

0.00 mm

10:50

18.0 C

1018.4 hpa

59 %

16.1 km/h aus 112

35.4 km/h aus S

9.9 C

16.2 C

16.7 C

17.5 C

0 W/m

0.00 mm

10:55

18.1 C

1018.4 hpa

59 %

17.7 km/h aus 112

32.2 km/h aus SSW

10.0 C

15.9 C

16.4 C

17.6 C

0 W/m

0.00 mm

11:00

18.3 C

1018.4 hpa

60 %

19.3 km/h aus 107

32.2 km/h aus S

10.4 C

15.9 C

16.4 C

17.9 C

0 W/m

0.00 mm

11:05

18.6 C

1018.4 hpa

61 %

20.9 km/h aus 108

30.6 km/h aus S

10.9 C

15.9 C

16.3 C

18.2 C

0 W/m

0.00 mm

11:10

19.3 C

1018.4 hpa

59 %

24.1 km/h aus 105

35.4 km/h aus S

11.1 C

16.5 C

16.8 C

19.0 C

0 W/m

0.00 mm

11:15

18.7 C

1018.3 hpa

56 %

20.9 km/h aus 106

32.2 km/h aus SSW

9.8 C

15.9 C

16.6 C

18.1 C

0 W/m

0.00 mm

11:20

19.2 C

1018.3 hpa

60 %

16.1 km/h aus 112

33.8 km/h aus SSE

11.3 C

17.8 C

18.1 C

18.9 C

0 W/m

0.00 mm

11:25

18.8 C

1018.3 hpa

54 %

19.3 km/h aus 113

30.6 km/h aus SW

9.3 C

16.3 C

16.9 C

18.2 C

0 W/m

0.00 mm

11:30

18.7 C

1018.3 hpa

56 %

19.3 km/h aus 110

33.8 km/h aus SW

9.8 C

16.2 C

16.8 C

18.1 C

0 W/m

0.00 mm

11:35

18.9 C

1018.3 hpa

59 %

17.7 km/h aus 110

30.6 km/h aus SSW

10.7 C

16.9 C

17.4 C

18.4 C

0 W/m

0.00 mm

11:40

19.7 C

1018.3 hpa

58 %

14.5 km/h aus 113

24.1 km/h aus S

11.2 C

18.6 C

18.9 C

19.3 C

0 W/m

0.00 mm

11:45

19.9 C

1018.2 hpa

56 %

22.5 km/h aus 110

38.6 km/h aus S

10.9 C

17.3 C

17.7 C

19.6 C

0 W/m

0.00 mm

11:50

19.8 C

1018.2 hpa

53 %

22.5 km/h aus 112

38.6 km/h aus S

10.0 C

17.1 C

17.6 C

19.3 C

0 W/m

0.00 mm

11:55

19.3 C

1018.2 hpa

53 %

22.5 km/h aus 109

37.0 km/h aus SSW

9.5 C

16.3 C

16.9 C

18.6 C

0 W/m

0.00 mm

12:00

19.2 C

1018.1 hpa

55 %

22.5 km/h aus 110

33.8 km/h aus SSW

9.9 C

16.3 C

16.8 C

18.6 C

0 W/m

0.00 mm

12:05

19.5 C

1018.1 hpa

58 %

22.5 km/h aus 108

37.0 km/h aus SSW

11.0 C

16.9 C

17.2 C

19.2 C

0 W/m

0.00 mm

12:10

19.9 C

1018.1 hpa

52 %

19.3 km/h aus 106

38.6 km/h aus S

9.8 C

17.6 C

18.2 C

19.3 C

0 W/m

0.00 mm

12:15

19.7 C

1018.1 hpa

53 %

19.3 km/h aus 115

30.6 km/h aus WSW

9.9 C

17.4 C

18.0 C

19.1 C

0 W/m

0.00 mm

12:20

19.6 C

1018.1 hpa

52 %

22.5 km/h aus 105

37.0 km/h aus SSW

9.5 C

16.7 C

17.3 C

18.9 C

0 W/m

0.00 mm

12:25

19.4 C

1018.1 hpa

53 %

20.9 km/h aus 110

35.4 km/h aus SW

9.6 C

16.8 C

17.4 C

18.8 C

0 W/m

0.00 mm

12:30

19.4 C

1018.4 hpa

53 %

22.5 km/h aus 112

38.6 km/h aus SSW

9.6 C

16.6 C

17.2 C

18.8 C

0 W/m

0.00 mm

12:35

19.5 C

1018.4 hpa

53 %

20.9 km/h aus 109

35.4 km/h aus SW

9.7 C

16.8 C

17.4 C

18.9 C

0 W/m

0.00 mm

12:40

19.4 C

1018.4 hpa

53 %

20.9 km/h aus 103

33.8 km/h aus S

9.6 C

16.8 C

17.4 C

18.8 C

0 W/m

0.00 mm

12:45

19.3 C

1018.1 hpa

55 %

20.9 km/h aus 112

33.8 km/h aus S

10.1 C

16.8 C

17.3 C

18.8 C

0 W/m

0.00 mm

12:50

19.7 C

1018.1 hpa

55 %

19.3 km/h aus 100

37.0 km/h aus SW

10.4 C

17.4 C

17.9 C

19.2 C

0 W/m

0.00 mm

12:55

19.7 C

1018.1 hpa

55 %

20.9 km/h aus 108

33.8 km/h aus SSW

10.4 C

17.1 C

17.6 C

19.2 C

0 W/m

0.00 mm

13:00

19.8 C

1018.1 hpa

52 %

22.5 km/h aus 103

38.6 km/h aus SSW

9.7 C

17.0 C

17.6 C

19.2 C

0 W/m

0.00 mm

13:05

19.4 C

1018.1 hpa

54 %

20.9 km/h aus 112

37.0 km/h aus S

9.8 C

16.8 C

17.3 C

18.8 C

0 W/m

0.00 mm

13:10

19.3 C

1018.1 hpa

56 %

16.1 km/h aus 108

27.4 km/h aus SW

10.3 C

17.7 C

18.2 C

18.8 C

0 W/m

0.00 mm

13:15

19.1 C

1018.1 hpa

56 %

25.7 km/h aus 109

41.8 km/h aus SSW

10.1 C

15.8 C

16.3 C

18.5 C

0 W/m

0.00 mm

13:20

19.0 C

1018.1 hpa

56 %

25.7 km/h aus 113

33.8 km/h aus S

10.0 C

15.7 C

16.2 C

18.4 C

0 W/m

0.00 mm

13:25

19.1 C

1018.1 hpa

56 %

17.7 km/h aus 113

30.6 km/h aus SSW

10.1 C

17.0 C

17.6 C

18.5 C

0 W/m

0.00 mm

13:30

19.4 C

1018.1 hpa

56 %

17.7 km/h aus 111

33.8 km/h aus S

10.4 C

17.5 C

17.9 C

18.9 C

0 W/m

0.00 mm

13:35

20.3 C

1018.1 hpa

54 %

20.9 km/h aus 112

38.6 km/h aus SSW

10.7 C

17.7 C

18.3 C

19.7 C

0 W/m

0.00 mm

13:40

20.3 C

1018.1 hpa

52 %

20.9 km/h aus 111

33.8 km/h aus SW

10.1 C

17.7 C

18.3 C

19.7 C

0 W/m

0.00 mm

13:45

20.4 C

1018.0 hpa

52 %

20.9 km/h aus 103

35.4 km/h aus SSW

10.3 C

17.8 C

18.4 C

19.8 C

0 W/m

0.00 mm

13:50

20.3 C

1018.0 hpa

51 %

19.3 km/h aus 110

38.6 km/h aus SSW

9.8 C

17.8 C

18.6 C

19.6 C

0 W/m

0.00 mm

13:55

20.1 C

1018.0 hpa

54 %

14.5 km/h aus 103

35.4 km/h aus SW

10.5 C

18.8 C

19.3 C

19.6 C

0 W/m

0.00 mm

14:00

20.3 C

1018.1 hpa

51 %

16.1 km/h aus 111

30.6 km/h aus SSW

9.8 C

18.4 C

19.1 C

19.6 C

0 W/m

0.00 mm

14:05

19.8 C

1018.1 hpa

51 %

20.9 km/h aus 107

37.0 km/h aus SSW

9.3 C

17.1 C

17.8 C

19.1 C

0 W/m

0.00 mm

14:10

19.9 C

1018.1 hpa

52 %

19.3 km/h aus 110

35.4 km/h aus SW

9.8 C

17.6 C

18.2 C

19.3 C

0 W/m

0.00 mm

14:15

20.1 C

1018.3 hpa

52 %

20.9 km/h aus 108

32.2 km/h aus SSW

9.9 C

17.4 C

18.1 C

19.4 C

0 W/m

0.00 mm

14:20

20.6 C

1018.3 hpa

52 %

17.7 km/h aus 100

32.2 km/h aus S

10.4 C

18.4 C

19.2 C

19.9 C

0 W/m

0.00 mm

14:25

20.2 C

1018.3 hpa

53 %

19.3 km/h aus 104

32.2 km/h aus SSW

10.3 C

17.9 C

18.5 C

19.6 C

0 W/m

0.00 mm

14:30

19.8 C

1018.3 hpa

52 %

17.7 km/h aus 107

32.2 km/h aus S

9.7 C

17.8 C

18.4 C

19.2 C

0 W/m

0.00 mm

14:35

19.6 C

1018.3 hpa

52 %

14.5 km/h aus 98

35.4 km/h aus SSW

9.5 C

18.2 C

18.9 C

18.9 C

0 W/m

0.00 mm

14:40

19.4 C

1018.3 hpa

52 %

17.7 km/h aus 110

33.8 km/h aus SSW

9.3 C

17.3 C

18.0 C

18.8 C

0 W/m

0.00 mm

14:45

19.7 C

1018.4 hpa

52 %

20.9 km/h aus 98

35.4 km/h aus SSW

9.5 C

16.9 C

17.6 C

19.0 C

0 W/m

0.00 mm

14:50

19.6 C

1018.4 hpa

54 %

17.7 km/h aus 103

32.2 km/h aus SSW

10.0 C

17.6 C

18.2 C

19.1 C

0 W/m

0.00 mm

14:55

19.8 C

1018.4 hpa

53 %

19.3 km/h aus 103

32.2 km/h aus SW

9.9 C

17.5 C

18.1 C

19.2 C

0 W/m

0.00 mm

15:00

19.7 C

1018.5 hpa

51 %

17.7 km/h aus 112

30.6 km/h aus SSW

9.2 C

17.5 C

18.2 C

18.9 C

0 W/m

0.00 mm

15:05

19.3 C

1018.5 hpa

53 %

17.7 km/h aus 107

33.8 km/h aus SW

9.5 C

17.2 C

17.8 C

18.6 C

0 W/m

0.00 mm

15:10

19.3 C

1018.5 hpa

54 %

14.5 km/h aus 103

29.0 km/h aus SW

9.7 C

17.9 C

18.6 C

18.7 C

0 W/m

0.00 mm

15:15

20.0 C

1018.5 hpa

54 %

12.9 km/h aus 111

24.1 km/h aus W

10.4 C

19.1 C

19.6 C

19.5 C

0 W/m

0.00 mm

15:20

20.4 C

1018.5 hpa

54 %

12.9 km/h aus 109

24.1 km/h aus W

10.8 C

19.4 C

20.0 C

19.8 C

0 W/m

0.00 mm

15:25

20.2 C

1018.5 hpa

54 %

14.5 km/h aus 102

29.0 km/h aus SW

10.6 C

18.9 C

19.4 C

19.7 C

0 W/m

0.00 mm

15:30

19.9 C

1018.5 hpa

51 %

19.3 km/h aus 110

32.2 km/h aus SSW

9.4 C

17.5 C

18.2 C

19.2 C

0 W/m

0.00 mm

15:35

19.8 C

1018.5 hpa

52 %

20.9 km/h aus 109

33.8 km/h aus SW

9.7 C

17.2 C

17.8 C

19.2 C

0 W/m

0.00 mm

15:40

19.9 C

1018.5 hpa

52 %

12.9 km/h aus 112

33.8 km/h aus SSW

9.8 C

18.9 C

19.6 C

19.3 C

0 W/m

0.00 mm

15:45

20.1 C

1018.5 hpa

52 %

12.9 km/h aus 111

24.1 km/h aus SSW

9.9 C

19.1 C

19.7 C

19.5 C

0 W/m

0.00 mm

15:50

20.0 C

1018.5 hpa

50 %

16.1 km/h aus 110

27.4 km/h aus WSW

9.3 C

18.1 C

18.8 C

19.3 C

0 W/m

0.00 mm

15:55

20.4 C

1018.5 hpa

50 %

14.5 km/h aus 106

29.0 km/h aus SSW

9.6 C

18.8 C

19.6 C

19.6 C

0 W/m

0.00 mm

16:00

20.6 C

1018.5 hpa

51 %

14.5 km/h aus 113

27.4 km/h aus SSW

10.1 C

19.1 C

19.8 C

19.8 C

0 W/m

0.00 mm

16:05

20.7 C

1018.5 hpa

52 %

11.3 km/h aus 109

24.1 km/h aus SSW

10.5 C

20.0 C

20.7 C

20.0 C

0 W/m

0.00 mm

16:10

20.6 C

1018.5 hpa

50 %

9.7 km/h aus 110

22.5 km/h aus W

9.8 C

19.8 C

20.6 C

19.8 C

0 W/m

0.00 mm

16:15

20.3 C

1018.5 hpa

51 %

12.9 km/h aus 112

25.7 km/h aus SW

9.8 C

19.2 C

19.9 C

19.6 C

0 W/m

0.00 mm

16:20

20.4 C

1018.5 hpa

50 %

16.1 km/h aus 108

25.7 km/h aus WSW

9.6 C

18.4 C

19.2 C

19.6 C

0 W/m

0.00 mm

16:25

20.6 C

1018.5 hpa

50 %

14.5 km/h aus 110

33.8 km/h aus WSW

9.8 C

19.0 C

19.8 C

19.8 C

0 W/m

0.00 mm

16:30

19.9 C

1018.4 hpa

51 %

12.9 km/h aus 114

24.1 km/h aus WSW

9.5 C

18.9 C

19.6 C

19.3 C

0 W/m

0.00 mm

16:35

20.1 C

1018.4 hpa

51 %

12.9 km/h aus 113

22.5 km/h aus SW

9.6 C

19.0 C

19.7 C

19.4 C

0 W/m

0.00 mm

16:40

19.9 C

1018.4 hpa

51 %

14.5 km/h aus 114

30.6 km/h aus SSW

9.5 C

18.5 C

19.2 C

19.3 C

0 W/m

0.00 mm

16:45

20.2 C

1018.2 hpa

50 %

12.9 km/h aus 111

22.5 km/h aus SW

9.5 C

19.1 C

19.8 C

19.5 C

0 W/m

0.00 mm

16:50

20.9 C

1018.2 hpa

53 %

11.3 km/h aus 109

27.4 km/h aus SW

10.9 C

20.2 C

20.9 C

20.2 C

0 W/m

0.00 mm

16:55

21.0 C

1018.2 hpa

48 %

17.7 km/h aus 112

30.6 km/h aus SSW

9.6 C

18.6 C

19.6 C

20.0 C

0 W/m

0.00 mm

17:00

20.9 C

1018.2 hpa

49 %

11.3 km/h aus 114

22.5 km/h aus SSW

9.8 C

20.0 C

20.9 C

20.0 C

0 W/m

0.00 mm

17:05

20.6 C

1018.2 hpa

50 %

8.0 km/h aus 114

17.7 km/h aus SW

9.8 C

19.8 C

20.6 C

19.8 C

0 W/m

0.00 mm

17:10

20.9 C

1018.2 hpa

49 %

12.9 km/h aus 112

30.6 km/h aus SSW

9.8 C

19.6 C

20.6 C

19.9 C

0 W/m

0.00 mm

17:15

20.8 C

1018.1 hpa

48 %

16.1 km/h aus 109

40.2 km/h aus SSW

9.4 C

18.7 C

19.6 C

19.8 C

0 W/m

0.00 mm

17:20

20.4 C

1018.1 hpa

49 %

16.1 km/h aus 109

24.1 km/h aus S

9.3 C

18.4 C

19.2 C

19.6 C

0 W/m

0.00 mm

17:25

20.6 C

1018.1 hpa

49 %

14.5 km/h aus 110

27.4 km/h aus SW

9.5 C

18.9 C

19.8 C

19.7 C

0 W/m

0.00 mm

17:30

20.3 C

1018.1 hpa

49 %

14.5 km/h aus 112

25.7 km/h aus SSW

9.2 C

18.7 C

19.5 C

19.4 C

0 W/m

0.00 mm

17:35

20.3 C

1018.1 hpa

49 %

11.3 km/h aus 111

22.5 km/h aus W

9.2 C

19.4 C

20.3 C

19.4 C

0 W/m

0.00 mm

17:40

20.4 C

1018.1 hpa

49 %

12.9 km/h aus 116

25.7 km/h aus SW

9.4 C

19.2 C

20.1 C

19.6 C

0 W/m

0.00 mm

17:45

20.7 C

1018.0 hpa

48 %

11.3 km/h aus 114

19.3 km/h aus SW

9.3 C

19.7 C

20.7 C

19.7 C

0 W/m

0.00 mm

17:50

20.7 C

1018.0 hpa

47 %

12.9 km/h aus 106

22.5 km/h aus WSW

9.0 C

19.4 C

20.4 C

19.7 C

0 W/m

0.00 mm

17:55

20.6 C

1018.0 hpa

48 %

12.9 km/h aus 113

27.4 km/h aus WSW

9.2 C

19.3 C

20.2 C

19.7 C

0 W/m

0.00 mm

18:00

20.8 C

1018.0 hpa

48 %

12.9 km/h aus 112

27.4 km/h aus SW

9.4 C

19.5 C

20.4 C

19.8 C

0 W/m

0.00 mm

18:05

20.6 C

1018.0 hpa

47 %

16.1 km/h aus 112

30.6 km/h aus SW

8.8 C

18.4 C

19.4 C

19.6 C

0 W/m

0.00 mm

18:10

20.4 C

1018.0 hpa

48 %

12.9 km/h aus 110

24.1 km/h aus SW

9.1 C

19.2 C

20.1 C

19.6 C

0 W/m

0.00 mm

18:15

20.4 C

1018.1 hpa

48 %

11.3 km/h aus 108

19.3 km/h aus SW

9.1 C

19.6 C

20.4 C

19.6 C

0 W/m

0.00 mm

18:20

20.5 C

1018.1 hpa

48 %

12.9 km/h aus 109

29.0 km/h aus SW

9.1 C

19.2 C

20.1 C

19.6 C

0 W/m

0.00 mm

18:25

20.6 C

1018.1 hpa

48 %

9.7 km/h aus 105

20.9 km/h aus SW

9.2 C

19.7 C

20.6 C

19.7 C

0 W/m

0.00 mm

18:30

20.4 C

1018.1 hpa

48 %

12.9 km/h aus 111

24.1 km/h aus WSW

9.0 C

19.1 C

20.0 C

19.5 C

0 W/m

0.00 mm

18:35

19.9 C

1018.1 hpa

50 %

8.0 km/h aus 109

19.3 km/h aus W

9.2 C

19.2 C

19.9 C

19.2 C

0 W/m

0.00 mm

18:40

19.7 C

1018.1 hpa

51 %

9.7 km/h aus 114

17.7 km/h aus SW

9.3 C

19.0 C

19.7 C

19.0 C

0 W/m

0.00 mm

18:45

19.7 C

1018.2 hpa

51 %

8.0 km/h aus 115

20.9 km/h aus SSW

9.3 C

19.0 C

19.7 C

19.0 C

0 W/m

0.00 mm

18:50

19.8 C

1018.2 hpa

50 %

11.3 km/h aus 110

22.5 km/h aus S

9.1 C

19.1 C

19.8 C

19.1 C

0 W/m

0.00 mm

18:55

19.8 C

1018.2 hpa

51 %

11.3 km/h aus 114

19.3 km/h aus S

9.4 C

19.2 C

19.8 C

19.2 C

0 W/m

0.00 mm

19:00

19.9 C

1018.2 hpa

52 %

4.8 km/h aus 114

16.1 km/h aus SSE

9.8 C

19.3 C

19.9 C

19.3 C

0 W/m

0.00 mm

19:05

19.9 C

1018.2 hpa

52 %

8.0 km/h aus 113

17.7 km/h aus SW

9.8 C

19.3 C

19.9 C

19.3 C

0 W/m

0.00 mm

19:10

19.8 C

1018.2 hpa

52 %

9.7 km/h aus 110

17.7 km/h aus WSW

9.7 C

19.2 C

19.8 C

19.2 C

0 W/m

0.00 mm

19:15

19.7 C

1018.4 hpa

53 %

9.7 km/h aus 106

22.5 km/h aus SSW

9.9 C

19.1 C

19.7 C

19.1 C

0 W/m

0.00 mm

19:20

19.7 C

1018.4 hpa

53 %

11.3 km/h aus 112

20.9 km/h aus W

9.9 C

19.1 C

19.7 C

19.1 C

0 W/m

0.00 mm

19:25

19.6 C

1018.4 hpa

54 %

8.0 km/h aus 110

16.1 km/h aus SW

10.0 C

19.0 C

19.6 C

19.0 C

0 W/m

0.00 mm

19:30

19.5 C

1018.4 hpa

53 %

11.3 km/h aus 110

22.5 km/h aus SW

9.7 C

18.9 C

19.5 C

18.9 C

0 W/m

0.00 mm

19:35

19.6 C

1018.4 hpa

54 %

9.7 km/h aus 111

17.7 km/h aus WSW

10.0 C

19.0 C

19.6 C

19.0 C

0 W/m

0.00 mm

19:40

19.4 C

1018.4 hpa

54 %

8.0 km/h aus 105

17.7 km/h aus SW

9.8 C

18.8 C

19.4 C

18.8 C

0 W/m

0.00 mm

19:45

19.3 C

1018.4 hpa

55 %

8.0 km/h aus 108

17.7 km/h aus SW

10.0 C

18.7 C

19.3 C

18.7 C

0 W/m

0.00 mm

19:50

19.2 C

1018.4 hpa

55 %

4.8 km/h aus 113

16.1 km/h aus WSW

9.9 C

18.6 C

19.2 C

18.6 C

0 W/m

0.00 mm

19:55

19.0 C

1018.4 hpa

55 %

11.3 km/h aus 104

22.5 km/h aus SSW

9.8 C

18.4 C

19.0 C

18.4 C

0 W/m

0.00 mm

20:00

18.9 C

1018.5 hpa

55 %

8.0 km/h aus 111

17.7 km/h aus W

9.7 C

18.3 C

18.9 C

18.3 C

0 W/m

0.00 mm

20:05

18.8 C

1018.5 hpa

55 %

8.0 km/h aus 108

20.9 km/h aus SW

9.6 C

18.2 C

18.8 C

18.2 C

0 W/m

0.00 mm

20:10

18.7 C

1018.5 hpa

56 %

4.8 km/h aus 111

17.7 km/h aus W

9.8 C

18.1 C

18.7 C

18.1 C

0 W/m

0.00 mm

20:15

18.6 C

1018.3 hpa

56 %

9.7 km/h aus 108

16.1 km/h aus SW

9.6 C

17.9 C

18.6 C

17.9 C

0 W/m

0.00 mm

20:20

18.4 C

1018.3 hpa

56 %

9.7 km/h aus 107

20.9 km/h aus SW

9.5 C

17.8 C

18.4 C

17.8 C

0 W/m

0.00 mm

20:25

18.3 C

1018.3 hpa

56 %

8.0 km/h aus 112

16.1 km/h aus SW

9.3 C

17.7 C

18.3 C

17.7 C

0 W/m

0.00 mm

20:30

18.2 C

1018.4 hpa

56 %

9.7 km/h aus 108

19.3 km/h aus WSW

9.2 C

17.5 C

18.2 C

17.5 C

0 W/m

0.00 mm

20:35

18.1 C

1018.4 hpa

57 %

9.7 km/h aus 108

17.7 km/h aus SW

9.5 C

17.5 C

18.1 C

17.5 C

0 W/m

0.00 mm

20:40

18.0 C

1018.4 hpa

57 %

8.0 km/h aus 111

16.1 km/h aus WSW

9.3 C

17.4 C

18.0 C

17.4 C

0 W/m

0.00 mm

20:45

17.9 C

1018.4 hpa

57 %

4.8 km/h aus 107

11.3 km/h aus WSW

9.3 C

17.3 C

17.9 C

17.3 C

0 W/m

0.00 mm

20:50

17.7 C

1018.4 hpa

59 %

3.2 km/h aus 105

8.0 km/h aus WSW

9.6 C

17.2 C

17.7 C

17.2 C

0 W/m

0.00 mm

20:55

17.6 C

1018.4 hpa

59 %

4.8 km/h aus 116

11.3 km/h aus WSW

9.4 C

16.9 C

17.6 C

16.9 C

0 W/m

0.00 mm

21:00

17.6 C

1018.5 hpa

59 %

3.2 km/h aus 112

8.0 km/h aus WSW

9.4 C

16.9 C

17.6 C

16.9 C

0 W/m

0.00 mm

21:05

17.5 C

1018.5 hpa

60 %

4.8 km/h aus 107

12.9 km/h aus SW

9.6 C

16.9 C

17.5 C

16.9 C

0 W/m

0.00 mm

21:10

17.4 C

1018.5 hpa

60 %

4.8 km/h aus 102

11.3 km/h aus WSW

9.5 C

16.8 C

17.4 C

16.8 C

0 W/m

0.00 mm

21:15

17.3 C

1018.5 hpa

60 %

4.8 km/h aus 110

9.7 km/h aus SW

9.5 C

16.7 C

17.3 C

16.7 C

0 W/m

0.00 mm

21:20

17.2 C

1018.5 hpa

60 %

1.6 km/h aus 110

8.0 km/h aus WSW

9.4 C

16.6 C

17.2 C

16.6 C

0 W/m

0.00 mm

21:25

17.1 C

1018.5 hpa

61 %

3.2 km/h aus 107

8.0 km/h aus WSW

9.5 C

16.5 C

17.1 C

16.5 C

0 W/m

0.00 mm

21:30

16.9 C

1018.5 hpa

61 %

3.2 km/h aus 110

8.0 km/h aus WSW

9.3 C

16.3 C

16.9 C

16.3 C

0 W/m

0.00 mm

21:35

16.8 C

1018.5 hpa

62 %

1.6 km/h aus 108

6.4 km/h aus WSW

9.5 C

16.2 C

16.8 C

16.2 C

0 W/m

0.00 mm

21:40

16.6 C

1018.5 hpa

63 %

1.6 km/h aus 110

6.4 km/h aus WSW

9.5 C

16.1 C

16.6 C

16.1 C

0 W/m

0.00 mm

21:45

16.3 C

1018.7 hpa

65 %

3.2 km/h aus 108

6.4 km/h aus WSW

9.7 C

15.8 C

16.3 C

15.8 C

0 W/m

0.00 mm

21:50

15.7 C

1018.7 hpa

68 %

1.6 km/h aus 108

6.4 km/h aus WSW

9.8 C

15.3 C

15.7 C

15.3 C

0 W/m

0.00 mm

21:55

15.1 C

1018.7 hpa

70 %

1.6 km/h aus 112

4.8 km/h aus WSW

9.7 C

14.7 C

15.1 C

14.7 C

0 W/m

0.00 mm

22:00

14.9 C

1018.6 hpa

72 %

1.6 km/h aus 114

3.2 km/h aus WSW

9.9 C

14.6 C

14.9 C

14.6 C

0 W/m

0.00 mm

22:05

14.6 C

1018.6 hpa

73 %

1.6 km/h aus 110

3.2 km/h aus WSW

9.8 C

14.2 C

14.6 C

14.2 C

0 W/m

0.00 mm

22:10

14.3 C

1018.6 hpa

75 %

0.0 km/h aus 110

3.2 km/h aus WSW

9.9 C

14.0 C

14.3 C

14.0 C

0 W/m

0.00 mm

22:15

13.9 C

1018.5 hpa

76 %

0.0 km/h aus 115

1.6 km/h aus WSW

9.8 C

13.7 C

13.9 C

13.7 C

0 W/m

0.00 mm

22:20

13.8 C

1018.5 hpa

77 %

1.6 km/h aus 111

3.2 km/h aus WSW

9.8 C

13.6 C

13.8 C

13.6 C

0 W/m

0.00 mm

22:25

13.7 C

1018.5 hpa

78 %

0.0 km/h aus 110

1.6 km/h aus WSW

10.0 C

13.5 C

13.7 C

13.5 C

0 W/m

0.00 mm

22:30

13.7 C

1018.6 hpa

78 %

0.0 km/h aus 111

1.6 km/h aus WSW

9.9 C

13.4 C

13.7 C

13.4 C

0 W/m

0.00 mm

22:35

13.5 C

1018.6 hpa

78 %

1.6 km/h aus 113

3.2 km/h aus WSW

9.7 C

13.3 C

13.5 C

13.3 C

0 W/m

0.00 mm

22:40

13.4 C

1018.6 hpa

79 %

1.6 km/h aus 106

3.2 km/h aus WSW

9.8 C

13.2 C

13.4 C

13.2 C

0 W/m

0.00 mm

22:45

13.4 C

1018.6 hpa

79 %

1.6 km/h aus 109

3.2 km/h aus WSW

9.9 C

13.2 C

13.4 C

13.2 C

0 W/m

0.00 mm

22:50

13.4 C

1018.6 hpa

79 %

1.6 km/h aus 111

1.6 km/h aus WSW

9.9 C

13.2 C

13.4 C

13.2 C

0 W/m

0.00 mm

22:55

13.4 C

1018.6 hpa

79 %

0.0 km/h aus 109

0.0 km/h aus ---

9.9 C

13.2 C

13.4 C

13.2 C

0 W/m

0.00 mm

23:00

13.3 C

1018.5 hpa

79 %

0.0 km/h aus 111

0.0 km/h aus ---

9.8 C

13.1 C

13.3 C

13.1 C

0 W/m

0.00 mm

23:05

13.2 C

1018.5 hpa

79 %

0.0 km/h aus 110

0.0 km/h aus ---

9.7 C

13.0 C

13.2 C

13.0 C

0 W/m

0.00 mm

23:10

13.3 C

1018.5 hpa

79 %

0.0 km/h aus 112

0.0 km/h aus ---

9.8 C

13.1 C

13.3 C

13.1 C

0 W/m

0.00 mm

23:15

13.3 C

1018.5 hpa

79 %

0.0 km/h aus 112

0.0 km/h aus ---

9.8 C

13.1 C

13.3 C

13.1 C

0 W/m

0.00 mm

23:20

13.4 C

1018.5 hpa

79 %

0.0 km/h aus 104

0.0 km/h aus ---

9.9 C

13.2 C

13.4 C

13.2 C

0 W/m

0.00 mm

23:25

13.4 C

1018.5 hpa

79 %

0.0 km/h aus 103

1.6 km/h aus WSW

9.8 C

13.2 C

13.4 C

13.2 C

0 W/m

0.00 mm

23:30

13.3 C

1018.4 hpa

79 %

0.0 km/h aus 111

0.0 km/h aus ---

9.8 C

13.1 C

13.3 C

13.1 C

0 W/m

0.00 mm

23:35

13.4 C

1018.4 hpa

81 %

0.0 km/h aus 114

1.6 km/h aus WSW

10.2 C

13.2 C

13.4 C

13.2 C

0 W/m

0.00 mm

23:40

13.3 C

1018.4 hpa

82 %

0.0 km/h aus 109

0.0 km/h aus ---

10.3 C

13.2 C

13.3 C

13.2 C

0 W/m

0.00 mm

23:45

13.2 C

1018.4 hpa

83 %

0.0 km/h aus 108

3.2 km/h aus WSW

10.4 C

13.1 C

13.2 C

13.1 C

0 W/m

0.00 mm

23:50

13.3 C

1018.4 hpa

84 %

3.2 km/h aus 110

3.2 km/h aus WSW

10.6 C

13.2 C

13.3 C

13.2 C

0 W/m

0.00 mm

23:55

13.2 C

1018.4 hpa

84 %

1.6 km/h aus 111

3.2 km/h aus WSW

10.6 C

13.2 C

13.2 C

13.2 C

0 W/m

0.00 mm